DW4465 Weather Reports


time (UTC)temp
F
wind
direction
speed
knots
gust
knots
rain 1hr
in
rain 24hr
in
rain mn
in
humidity
%
barometer
mb
20260902141550 60 0 0.0 0.0 0.00 0.00 0.00 86 1015.8
20260902140049 59 0 0.0 0.0 0.00 0.00 0.00 86 1015.7
20260902134547 58 0 0.0 0.0 0.00 0.00 0.00 86 1015.7
20260902133047 59 0 0.0 0.0 0.00 0.00 0.00 85 1015.4
20260902131559 59 0 0.0 0.0 0.00 0.00 0.00 85 1015.5
20260902130047 59 0 0.0 0.0 0.00 0.00 0.00 85 1015.4
20260902124557 60 0 0.0 0.0 0.00 0.00 0.00 85 1015.4
20260902123045 60 0 0.0 0.0 0.00 0.00 0.00 85 1015.5
20260902121550 60 0 0.0 0.0 0.00 0.00 0.00 85 1015.7
20260902120048 61 0 0.0 0.0 0.00 0.00 0.00 85 1015.6
20260902114546 61 0 0.0 0.0 0.00 0.00 0.00 84 1015.6
20260902113059 61 0 0.0 0.0 0.00 0.00 0.00 84 1015.7
20260902111556 61 0 0.0 0.0 0.00 0.00 0.00 84 1015.6
20260902110047 61 0 0.0 0.0 0.00 0.00 0.00 84 1015.6
20260902104546 61 0 0.0 0.0 0.00 0.00 0.00 83 1015.6
20260902103048 61 0 0.0 0.0 0.00 0.00 0.00 83 1015.7
20260902101604 62 0 0.0 0.0 0.00 0.00 0.00 83 1015.7
20260902100049 62 0 0.0 0.0 0.00 0.00 0.00 83 1015.7
20260902094551 62 0 0.0 0.0 0.00 0.00 0.00 82 1015.8
20260902093045 62 0 0.0 0.0 0.00 0.00 0.00 82 1015.7
20260902091551 62 0 0.0 0.0 0.00 0.00 0.00 81 1015.7
20260902090047 62 0 0.0 0.0 0.00 0.00 0.00 81 1015.7
20260902084551 62 0 0.0 0.0 0.00 0.00 0.00 81 1015.8
20260902083046 63 0 0.0 0.0 0.00 0.00 0.00 80 1015.8
20260902081552 63 0 0.0 0.0 0.00 0.00 0.00 80 1015.9
20260902080059 63 0 0.0 0.0 0.00 0.00 0.00 79 1016.0
20260902074546 63 0 0.0 0.0 0.00 0.00 0.00 79 1016.0
20260902073044 63 0 0.0 0.0 0.00 0.00 0.00 79 1015.8
20260902071555 64 0 0.0 0.0 0.00 0.00 0.00 78 1015.6
20260902070051 64 0 0.0 0.0 0.00 0.00 0.00 77 1015.4
20260902064555 64 0 0.0 0.0 0.00 0.00 0.00 77 1015.4
20260902063047 65 0 0.0 0.0 0.00 0.00 0.00 76 1015.4
20260902060050 66 0 0.0 0.0 0.00 0.00 0.00 75 1015.3
20260902054550 66 0 0.0 0.0 0.00 0.00 0.00 75 1015.3
20260902053046 67 0 0.0 0.0 0.00 0.00 0.00 74 1015.3
20260902051556 67 0 0.0 1.7 0.00 0.00 0.00 74 1015.3
20260902050100 68 0 0.0 0.9 0.00 0.00 0.00 74 1015.1
20260902044547 68 0 0.0 1.7 0.00 0.00 0.00 74 1015.1
20260902043056 68 0 0.0 2.6 0.00 0.00 0.00 74 1014.9
20260902041555 69 317 0.0 2.6 0.00 0.00 0.00 73 1014.8
20260902040050 69 0 0.0 2.6 0.00 0.00 0.00 73 1014.5
20260902034552 69 313 0.9 5.2 0.00 0.00 0.00 73 1014.3
20260902033052 70 0 0.0 4.3 0.00 0.00 0.00 73 1014.2
20260902031547 70 0 0.9 2.6 0.00 0.00 0.00 72 1014.1
20260902030047 71 294 0.9 4.3 0.00 0.00 0.00 70 1013.9
20260902024547 71 325 0.9 3.5 0.00 0.00 0.00 69 1013.7
20260902023104 72 289 0.9 3.5 0.00 0.00 0.00 68 1013.5
20260902021608 73 0 0.9 5.2 0.00 0.00 0.00 67 1013.5
20260902020055 74 273 0.9 2.6 0.00 0.00 0.00 66 1013.6
20260902014543 74 330 0.9 3.5 0.00 0.00 0.00 64 1013.6
20260902013048 75 296 1.7 3.5 0.00 0.00 0.00 63 1013.6
20260902011548 76 331 0.9 4.3 0.00 0.00 0.00 61 1013.6
20260902010057 76 277 1.7 7.0 0.00 0.00 0.00 59 1013.7
20260902004547 78 242 1.7 4.3 0.00 0.00 0.00 57 1013.7
20260902003056 79 280 1.7 7.0 0.00 0.00 0.00 54 1013.7
20260902001547 80 303 2.6 7.0 0.00 0.00 0.00 54 1013.8
20260902000054 81 279 1.7 8.7 0.00 0.00 0.00 54 1013.8
20260901234750 82 281 2.6 7.0 0.00 0.00 0.00 53 1013.9
20260901233043 83 30 2.6 6.1 0.00 0.00 0.00 52 1013.8
20260901231551 84 246 1.7 7.0 0.00 0.00 0.00 51 1013.7
20260901230123 84 288 0.9 8.7 0.00 0.00 0.00 52 1013.7
20260901224556 84 303 0.9 7.0 0.00 0.00 0.00 51 1013.8
20260901223108 85 0 1.7 4.3 0.00 0.00 0.00 50 1013.9
20260901221549 84 240 4.3 8.7 0.00 0.00 0.00 44 1014.1
20260901220058 83 182 4.3 8.7 0.00 0.00 0.00 42 1014.2
20260901214545 83 203 3.5 7.8 0.00 0.00 0.00 44 1014.3
20260901213053 82 204 1.7 9.6 0.00 0.00 0.00 46 1014.4
20260901211553 82 167 2.6 8.7 0.00 0.00 0.00 47 1014.5
20260901210048 82 211 3.5 8.7 0.00 0.00 0.00 48 1014.6
20260901204555 81 188 3.5 9.6 0.00 0.00 0.00 50 1014.7
20260901203054 81 198 2.6 7.8 0.00 0.00 0.00 52 1014.9
20260901201548 81 185 5.2 9.6 0.00 0.00 0.00 54 1015.1
20260901200056 81 195 2.6 7.8 0.00 0.00 0.00 56 1015.2
20260901194601 80 222 1.7 7.8 0.00 0.00 0.00 58 1015.2
20260901193053 80 197 2.6 7.0 0.00 0.00 0.00 59 1015.4
20260901191549 80 148 2.6 6.1 0.00 0.00 0.00 60 1015.6
20260901184553 79 250 1.7 6.1 0.00 0.00 0.00 62 1015.8
20260901183050 79 147 3.5 7.0 0.00 0.00 0.00 62 1015.7
20260901181554 79 220 1.7 6.1 0.00 0.00 0.00 63 1015.7
20260901180043 77 175 0.9 5.2 0.00 0.00 0.00 62 1015.7
20260901174551 76 0 0.9 3.5 0.00 0.00 0.00 65 1015.8
20260901173104 76 178 1.7 4.3 0.00 0.00 0.00 67 1015.7
20260901171554 75 0 0.0 5.2 0.00 0.00 0.00 70 1015.6
20260901170050 73 187 0.0 2.6 0.00 0.00 0.00 74 1015.6
20260901164558 72 313 0.9 2.6 0.00 0.00 0.00 76 1015.6
20260901163044 70 234 0.0 2.6 0.00 0.00 0.00 81 1015.5
20260901161551 69 0 0.9 3.5 0.00 0.00 0.00 83 1015.6
20260901160050 68 183 0.0 2.6 0.00 0.00 0.00 85 1015.5
20260901154546 67 182 0.9 4.3 0.00 0.00 0.00 86 1015.6
20260901153058 67 0 0.0 3.5 0.00 0.00 0.00 87 1015.6
20260901151555 66 0 0.0 0.9 0.00 0.00 0.00 88 1015.4
20260901150046 65 121 0.0 1.7 0.00 0.00 0.00 88 1015.3
20260901144559 65 0 0.0 2.6 0.00 0.00 0.00 88 1015.0
20260901143046 65 128 0.0 1.7 0.00 0.00 0.00 88 1015.1